Location: Go�ngahuizen
(53.0821°N, 5.8849°E)
Time: 12:49:03
(UTC+00:00)

Thor Agena Rocket - Pass Details

Date: 09 April 2020
Orbit: 760 x 807 km, 99.0° (Epoch: 24 May)

Event Time Altitude Azimuth Distance (km) Brightness Sun altitude
Rises 21:29:50 0° 21° (NNE) 3,242 7.2 -23.1°
Reaches altitude 10° 21:32:20 10° 30° (NNE) 2,316 6.3 -23.4°
Enters shadow 21:36:20 35° 79° (E) 1,238 4.3 -23.7°
